Location: Unnamed
(51.5169°N, 0.1311°W)
Time: 21:35:05
(UTC+01:00)

Tiros 1 - Pass Details

Date: 12 August 2024
Orbit: 623 x 655 km, 48.4° (Epoch: 16 September)

Event Time Altitude Azimuth Distance (km) Brightness Sun altitude
Rises 10:18:08 0° 277° (W) 2,981 10.1 40.4°
Reaches altitude 10° 10:20:37 10° 270° (W) 2,066 9.5 40.7°
Maximum altitude 10:25:00 38° 203° (SSW) 1,004 8.7 41.3°
Drops below altitude 10° 10:29:21 10° 136° (SE) 2,047 10.8 41.8°
Sets 10:31:48 0° 128° (SE) 2,950 11.4 42.1°
